Troy, AL

1:49 PM CST on February 14, 2016 (GMT -0600)
Troy Municipal

Weather History for KTOI - February, 2013

Change the Weather History Date:

Thursday, February 28, 2013

  Actual Average Record
Temperature  
Mean Temperature 46 °F 53 °F  
Max Temperature 56 °F 66 °F 81 °F (2011)
Min Temperature 36 °F 40 °F 18 °F (2002)
Degree Days  
Heating Degree Days 19 13  
Month to date heating degree days 409 427  
Since 1 July heating degree days 1606 1919  
Moisture  
Dew Point 31 °F    
Average Humidity 64    
Maximum Humidity 92    
Minimum Humidity 35    
Precipitation  
Precipitation 0.00 in 0.19 in 0.60 in (2011)
Month to date precipitation 12.15 4.58  
Year to date precipitation 15.29 9.13  
Snow  
Snow 0.00 in - - ()
Month to date snowfall 0.0  
Since 1 July snowfall 0.0  
Snow Depth 0.00 in    
Sea Level Pressure  
Sea Level Pressure 30.01 in    
Wind  
Wind Speed 7 mph (NW)    
Max Wind Speed 20 mph    
Max Gust Speed 25 mph    
Visibility 10 miles    
Events      
T = Trace of Precipitation, MM = Missing Value Source: NWS Daily Summary

Daily Weather History Graph

Daily Weather History Graph

Search for Another Location

Airport or City:

Trip Planner

Search our weather history database for the weather conditions in past years. The results will help you decide how hot, cold, wet, or windy it might be!

Date:

Astronomy

Feb. 28, 2013 Rise Set
Actual Time 6:12 AM CST 5:41 PM CST
Civil Twilight 5:47 AM CST 6:05 PM CST
Nautical Twilight 5:19 AM CST 6:34 PM CST
Astronomical Twilight 4:51 AM CST 7:02 PM CST
Moon 8:51 PM CST (2/28) 7:35 AM CST (2/28)
Length of Visible Light 12h 18m
Length of Day
11h 29m
Waning Gibbous, 90% of the Moon is Illuminated
Feb 28
Waning Gibbous
Mar 4
Last Quarter
Mar 11
New
Mar 19
First Quarter
Mar 27
Full

Hourly Weather History & Observations

Time (CST) Temp. Windchill Dew Point Humidity Pressure Visibility Wind Dir Wind Speed Gust Speed Precip Events Conditions
12:53 AM 41.0 °F - 37.0 °F 86% 29.97 in 10.0 mi Calm Calm - N/A   Clear
1:53 AM 39.9 °F - 36.0 °F 86% 29.96 in 10.0 mi Calm Calm - N/A   Scattered Clouds
2:53 AM 41.0 °F - 36.0 °F 82% 29.97 in 10.0 mi Calm Calm - N/A   Mostly Cloudy
3:53 AM 37.9 °F - 35.1 °F 89% 29.97 in 8.0 mi Calm Calm - N/A   Partly Cloudy
4:53 AM 41.0 °F 38.0 °F 35.1 °F 79% 29.99 in 10.0 mi WNW 4.6 mph - N/A   Scattered Clouds
5:53 AM 37.0 °F - 34.0 °F 89% 29.99 in 9.0 mi Calm Calm - N/A   Clear
6:53 AM 39.0 °F 35.7 °F 33.1 °F 79% 30.01 in 8.0 mi West 4.6 mph - N/A   Clear
7:53 AM 44.1 °F 40.1 °F 34.0 °F 68% 30.02 in 8.0 mi WNW 6.9 mph - N/A   Clear
8:53 AM 46.9 °F - 30.0 °F 52% 30.03 in 9.0 mi WNW 13.8 mph 20.7 mph N/A   Clear
9:53 AM 48.9 °F - 28.9 °F 46% 30.03 in 10.0 mi WNW 12.7 mph 20.7 mph N/A   Clear
10:53 AM 51.1 °F - 28.9 °F 43% 30.02 in 10.0 mi West 9.2 mph 19.6 mph N/A   Clear
11:53 AM 54.0 °F - 30.0 °F 40% 30.01 in 10.0 mi NW 12.7 mph 23.0 mph N/A   Clear
12:53 PM 54.0 °F - 28.9 °F 38% 29.99 in 10.0 mi WNW 11.5 mph 24.2 mph N/A   Clear
1:43 PM 53.6 °F - 28.4 °F 38% 29.98 in 10.0 mi NW 17.3 mph 25.3 mph N/A   Clear
1:53 PM 53.1 °F - 28.9 °F 40% 29.98 in 10.0 mi WNW 13.8 mph 21.9 mph N/A   Clear
2:53 PM 52.0 °F - 26.1 °F 37% 29.99 in 10.0 mi WNW 13.8 mph 19.6 mph N/A   Clear
3:53 PM 51.1 °F - 25.0 °F 36% 29.99 in 10.0 mi WNW 11.5 mph - N/A   Clear
4:53 PM 50.0 °F - 28.0 °F 43% 29.99 in 10.0 mi WNW 4.6 mph - N/A   Clear
5:53 PM 48.9 °F - 28.0 °F 44% 30.01 in 10.0 mi WNW 6.9 mph - N/A   Clear
6:53 PM 46.9 °F - 28.9 °F 50% 30.01 in 10.0 mi WNW 6.9 mph - N/A   Clear
7:53 PM 44.1 °F 40.1 °F 30.0 °F 58% 30.01 in 10.0 mi NW 6.9 mph - N/A   Clear
8:53 PM 43.0 °F 38.8 °F 30.0 °F 60% 30.04 in 10.0 mi NNW 6.9 mph - N/A   Clear
9:53 PM 43.0 °F 36.8 °F 28.0 °F 56% 30.06 in 10.0 mi North 11.5 mph - N/A   Clear
10:53 PM 41.0 °F 34.7 °F 28.0 °F 60% 30.06 in 10.0 mi North 10.4 mph - N/A   Clear
11:53 PM 39.9 °F 35.8 °F 28.0 °F 63% 30.07 in 10.0 mi NNW 5.8 mph - N/A   Clear